Location: Bettgenhausen
(50.6463°N, 7.5681°E)
Time: 08:50:37
(UTC+00:00)

ADEOS Rocket - Pass Details

Date: 27 February 2020
Orbit: 859 x 1306 km, 98.7° (Epoch: 31 March)

Event Time Altitude Azimuth Distance (km) Brightness Sun altitude
Rises 18:04:25 0° 15° (NNE) 4,287 6.2 -9.9°
Reaches altitude 10° 18:07:10 10° 19° (NNE) 3,330 5.6 -10.3°
Maximum altitude 18:14:57 65° 101° (E) 1,414 3.6 -11.6°
Drops below altitude 10° 18:22:29 10° 183° (S) 3,231 5.7 -12.8°
Sets 18:25:06 0° 186° (S) 4,153 6.3 -13.2°
